Theta_e
318 317 316 315 314 314 315 317 318 317 316 316 317 315 316 319 321 323 323 322 319 316 314 312 312 313 313 312 313 313 317 319 322 329 334 329 323 325 328 331 329 324 323 322 321 320 319 322 322 325 327 330 336 336 337 336 338 339 346 347 341 347 344 347 360 361 368 370 371 370 370 375 369 366 361 360 365 364 367 369 369 368 366 362 359 357 356 357
318 318 317 316 314 313 314 316 317 317 316 316 318 318 318 320 322 322 322 321 319 315 313 312 312 313 313 312 312 315 319 322 328 336 337 322 325 329 331 332 331 329 324 321 321 319 321 324 323 324 329 333 336 338 338 339 338 336 352 351 342 353 350 350 360 357 367 372 370 371 371 373 370 367 362 369 373 365 369 371 370 370 367 361 356 357 358 357
318 318 318 316 315 314 313 316 317 316 315 316 319 319 319 320 322 322 321 321 319 315 313 312 312 313 313 312 313 316 321 327 339 347 337 325 327 328 330 333 333 331 325 322 321 319 320 322 322 324 328 332 335 337 337 339 339 338 353 350 342 355 352 355 366 359 368 372 370 373 370 369 370 366 364 374 373 368 372 371 370 369 365 360 356 357 358 357
319 318 318 317 315 314 313 315 317 316 315 316 318 319 319 320 321 322 322 321 320 316 312 313 312 312 312 313 314 319 325 335 342 337 330 327 327 328 330 331 333 329 322 321 318 318 319 319 322 325 328 330 332 333 334 336 337 337 352 349 339 351 347 351 370 364 366 369 370 371 370 371 368 363 368 373 372 372 371 369 369 367 364 359 356 357 358 357
319 319 318 317 316 315 314 314 317 316 315 315 317 318 318 321 322 323 323 321 320 317 312 312 312 312 312 313 317 323 330 339 335 331 326 321 321 326 328 329 330 325 319 318 317 318 320 321 324 327 329 331 331 331 334 334 335 336 342 344 343 349 346 351 366 365 364 367 368 370 370 371 364 362 370 373 382 385 371 368 368 364 362 358 356 357 357 357
319 319 318 318 317 315 314 315 317 317 316 315 316 318 319 320 322 323 323 321 320 316 312 312 312 312 312 316 323 326 333 336 331 329 323 319 318 320 322 323 323 319 317 318 319 322 324 326 326 327 329 330 330 331 333 329 334 338 334 338 345 346 343 353 362 363 363 364 364 369 370 366 363 367 368 370 386 384 365 364 365 360 360 356 355 356 355 356
319 319 318 318 317 315 313 314 317 317 317 316 316 318 319 319 320 323 323 322 319 314 312 312 311 312 313 321 328 331 337 337 330 326 322 319 317 318 317 317 319 317 317 321 324 326 327 328 327 327 328 329 330 329 331 329 335 343 337 336 343 343 345 358 367 369 367 365 365 367 368 369 373 370 364 370 377 369 359 362 362 358 358 356 355 355 355 356
319 319 318 318 317 316 314 314 317 318 318 318 317 318 319 319 319 320 322 322 319 314 311 311 312 313 314 324 333 338 343 342 331 325 322 318 317 318 317 317 317 316 320 323 327 329 329 329 329 328 327 327 329 329 328 334 341 343 339 338 341 344 351 359 368 371 370 369 368 368 370 375 382 372 364 373 369 360 360 360 361 360 356 357 356 355 355 355
318 318 318 318 317 317 314 314 316 317 317 318 318 319 321 320 319 319 322 322 318 313 311 311 312 313 319 328 336 341 343 336 330 326 322 319 318 318 317 318 317 317 320 323 325 326 326 329 329 328 328 327 328 330 329 334 340 336 331 337 342 346 353 362 366 370 371 369 370 374 376 375 378 371 363 367 362 358 360 359 362 362 357 359 357 356 355 354
318 318 318 318 317 317 315 314 317 318 317 317 317 319 320 321 319 320 322 322 318 312 311 311 312 315 323 332 338 342 338 329 328 327 324 320 317 317 319 321 320 319 320 322 323 323 326 328 329 326 326 328 328 329 329 331 332 329 329 335 345 350 355 362 363 367 372 372 373 378 375 371 372 370 366 363 360 360 362 361 363 364 362 360 360 360 356 351
318 318 317 317 317 318 316 315 317 318 317 316 317 318 320 320 320 320 322 321 316 312 311 312 314 318 325 334 337 336 335 329 330 329 325 323 320 321 323 326 325 322 321 323 323 323 325 325 324 324 325 327 328 328 330 331 329 330 328 332 347 353 354 361 363 367 373 369 371 378 374 375 375 374 371 362 360 364 362 363 366 368 366 362 363 363 356 353
318 317 318 317 317 318 316 315 317 317 316 315 316 316 319 320 319 321 322 319 314 312 312 312 315 321 328 337 335 330 331 331 330 330 328 326 324 326 328 328 328 326 325 324 324 324 324 324 323 324 326 327 327 328 330 331 328 328 328 331 343 349 353 360 366 367 370 365 369 376 368 373 379 371 368 363 363 366 366 367 367 366 366 361 361 358 356 357
318 318 317 317 317 318 317 315 316 317 316 316 317 316 316 318 319 321 322 318 313 312 313 314 317 322 330 340 332 323 327 330 329 329 328 328 328 327 327 328 328 328 328 326 325 325 325 324 323 323 326 325 327 328 329 329 326 329 335 334 334 338 347 356 360 366 368 364 371 376 358 361 375 367 365 366 365 368 367 367 366 367 368 362 359 356 355 357
317 318 317 317 317 318 317 315 316 317 317 319 319 316 315 316 318 321 320 315 312 313 315 316 318 325 335 338 325 322 328 329 328 328 329 329 328 329 327 326 326 327 327 326 326 326 325 324 322 324 325 326 328 327 327 328 326 330 334 336 333 328 336 350 358 367 368 358 370 377 357 359 369 364 365 364 363 367 365 366 368 370 372 368 365 360 358 357
317 317 317 318 317 318 317 315 317 317 319 321 318 318 317 317 320 320 317 312 313 315 316 319 319 326 339 337 324 325 330 329 327 329 330 330 329 328 329 327 327 326 325 325 325 325 325 324 323 325 327 328 326 326 327 329 335 335 323 324 331 326 333 347 350 362 367 360 368 367 356 361 365 362 366 361 361 365 363 366 369 367 369 371 370 363 357 356
317 317 317 318 318 320 318 316 317 317 319 320 319 319 319 319 319 316 314 312 314 315 316 324 324 326 337 336 327 328 327 328 328 330 332 331 330 329 328 327 327 326 325 325 325 325 325 323 323 325 327 325 325 325 326 325 332 338 322 317 323 323 332 340 344 358 364 363 366 361 360 364 364 364 364 361 363 365 364 369 369 364 363 366 365 359 356 356
317 317 317 318 319 320 318 316 317 317 319 320 318 318 316 317 316 313 315 315 317 320 319 325 326 327 336 333 329 330 327 328 329 329 329 329 332 330 328 327 326 325 324 325 324 324 323 323 324 325 326 325 325 326 321 316 319 326 324 319 321 326 331 335 345 358 357 362 365 363 367 368 364 365 363 361 363 365 367 367 364 361 360 361 360 357 356 359
317 317 318 319 320 320 319 316 317 318 320 320 317 317 317 313 311 316 321 321 322 323 324 328 328 328 330 327 329 332 327 327 328 327 326 328 330 330 328 326 327 326 326 325 325 324 325 325 325 325 326 325 325 324 316 314 317 318 319 317 318 328 332 334 343 350 353 363 366 364 369 368 364 364 363 361 360 362 364 361 359 359 359 360 360 359 358 362
317 318 319 320 320 320 320 316 317 318 318 320 317 319 323 317 313 320 324 326 330 329 329 335 335 330 325 324 328 328 327 328 326 326 326 327 328 329 329 327 328 329 326 326 326 325 324 325 326 323 323 324 325 325 319 321 322 320 319 318 318 323 330 338 345 348 354 360 363 365 364 365 364 361 361 362 363 363 361 360 361 361 361 362 363 359 358 361
317 318 319 320 320 321 320 316 317 318 318 319 317 321 331 329 327 330 327 331 337 333 329 334 335 331 326 325 325 325 328 326 325 325 324 328 328 328 327 327 328 329 327 328 327 327 326 325 325 323 323 325 324 325 324 325 325 323 323 320 319 322 328 342 350 350 355 359 360 362 360 362 363 362 360 360 363 364 362 364 365 364 364 366 364 359 359 360
317 318 319 321 321 321 321 317 316 318 318 319 318 327 341 337 335 334 331 335 334 328 327 329 330 329 326 324 325 325 325 325 325 325 326 328 328 327 327 326 327 328 327 327 325 327 326 323 324 325 325 325 325 325 324 325 325 324 324 320 319 324 331 344 352 351 355 358 357 358 359 361 363 363 361 360 360 360 361 363 364 366 367 367 365 360 360 361
318 319 320 321 322 321 321 318 316 317 319 318 319 328 336 332 330 329 329 332 329 326 327 326 326 327 326 325 325 326 325 326 327 326 327 328 327 326 328 326 326 329 328 326 325 325 324 323 325 326 325 324 324 325 323 325 326 326 324 319 320 331 341 347 352 353 353 356 357 358 361 362 364 364 362 361 359 358 361 362 362 365 366 366 365 361 360 361
318 320 321 322 322 321 320 317 317 317 319 319 318 322 327 325 325 324 326 330 329 330 330 329 329 328 327 327 326 326 327 328 328 327 326 327 326 327 327 326 327 328 325 325 325 321 318 323 326 326 326 325 324 325 326 326 325 327 323 316 318 334 344 340 346 355 355 355 359 358 358 361 366 366 365 363 362 362 361 359 359 360 362 364 363 362 360 360
319 320 321 322 322 322 320 317 318 321 321 321 320 324 327 327 327 324 326 331 331 331 331 330 330 328 328 328 326 327 327 327 327 326 326 327 328 326 325 326 326 325 324 325 325 322 320 323 326 326 326 326 325 329 328 325 323 325 326 318 317 331 342 343 349 357 356 355 356 355 354 358 364 365 364 363 362 360 356 355 355 356 358 361 362 361 360 360
320 321 322 323 322 323 319 317 321 324 324 324 326 329 328 329 329 325 328 334 333 333 331 329 328 327 327 325 326 327 326 326 326 325 326 325 326 326 325 325 325 325 326 325 325 324 324 325 325 326 327 326 327 329 327 324 320 320 327 325 326 338 347 351 354 353 350 349 351 352 349 349 355 362 366 364 363 358 355 355 353 355 356 360 363 362 360 360
321 322 322 323 323 322 319 322 326 325 323 327 330 328 326 328 330 327 331 334 329 331 330 328 327 326 325 324 325 327 324 326 326 325 325 325 325 325 324 325 325 325 326 326 326 326 326 326 326 327 327 328 329 328 328 328 318 314 325 327 333 346 352 352 352 347 342 343 349 349 349 346 347 355 365 363 362 358 356 357 354 356 357 358 363 360 359 360
321 323 322 323 323 320 321 328 327 324 327 330 328 326 326 328 329 328 333 333 328 328 325 323 322 323 324 324 325 324 322 325 326 324 325 327 325 324 324 326 326 325 326 327 323 325 327 327 328 329 328 328 328 326 330 332 320 316 328 328 333 346 349 350 347 338 337 341 347 347 350 350 345 351 362 359 360 361 357 358 357 357 357 357 358 357 357 357
322 323 322 323 323 320 320 322 320 322 327 329 327 328 329 328 329 331 335 331 331 325 322 320 321 323 323 324 325 325 325 326 326 326 325 326 325 324 323 325 326 327 328 326 318 324 329 328 329 332 329 327 326 327 330 330 324 324 332 326 329 336 339 342 336 329 335 339 341 344 344 348 345 350 361 361 360 362 359 358 359 358 358 357 355 355 355 355
322 323 323 323 322 320 318 316 317 321 326 330 331 331 330 328 333 336 337 334 330 319 322 322 323 325 324 326 324 324 326 326 328 327 325 325 325 325 325 327 326 326 326 326 324 326 329 330 332 331 330 329 327 331 331 326 327 329 329 328 329 331 328 327 326 325 334 340 337 337 337 344 347 347 356 360 358 359 360 360 360 358 357 357 356 354 353 353
323 323 323 323 320 319 318 316 319 324 331 333 331 331 330 333 339 334 330 334 326 318 324 323 326 328 325 324 324 325 325 326 326 327 324 325 324 325 327 327 326 327 329 327 327 328 326 332 336 332 333 332 328 333 330 326 330 326 327 331 326 331 335 333 338 335 334 339 338 334 334 344 348 348 353 359 358 359 362 360 358 358 358 357 357 354 352 352
324 323 323 323 320 319 322 325 325 328 333 332 330 332 333 340 343 330 328 331 321 320 324 323 327 328 325 325 326 326 326 326 326 325 324 325 325 324 325 327 326 327 329 327 325 328 328 328 333 333 334 334 328 331 330 330 330 323 330 334 319 325 337 337 345 345 335 338 342 338 339 346 348 351 354 359 358 357 361 359 358 357 358 359 358 356 353 352
324 324 323 322 321 320 325 331 330 328 331 329 328 335 339 341 337 329 332 329 320 322 324 323 326 327 327 326 326 326 327 327 325 324 325 323 324 327 325 328 328 321 319 322 322 323 328 329 331 330 334 335 328 329 331 333 334 326 329 331 320 322 329 326 328 330 328 334 341 343 346 349 350 354 356 358 356 355 358 357 356 357 358 359 358 357 354 351
324 324 322 322 322 320 322 327 330 329 328 327 331 339 341 338 335 332 331 327 323 324 324 326 326 328 330 325 325 326 326 327 326 325 325 324 324 326 324 326 330 323 319 321 317 315 322 332 335 331 330 335 330 326 325 325 332 327 321 324 322 322 321 319 321 323 327 334 337 343 350 349 350 353 355 357 354 354 356 355 356 356 357 358 358 358 357 352
324 322 322 321 322 320 320 322 325 326 324 327 340 344 338 335 339 338 332 332 330 325 324 327 327 328 328 326 326 325 325 326 326 325 326 323 322 322 324 324 325 326 323 320 317 314 315 323 333 331 329 334 331 330 328 326 330 329 327 330 324 322 321 318 320 321 325 336 339 344 350 348 349 353 354 354 353 354 354 352 354 354 354 355 353 355 355 354
327 326 323 322 321 321 320 319 321 322 323 334 345 343 337 334 339 338 337 339 333 324 324 327 327 326 324 326 326 325 326 325 325 327 326 323 322 321 326 324 323 326 323 318 321 321 315 320 336 335 331 335 332 332 335 330 329 330 334 330 319 324 328 321 322 322 326 342 347 344 347 350 353 355 353 352 354 355 354 353 353 354 353 351 350 349 350 352
329 329 326 325 323 321 319 319 320 321 327 343 342 336 338 340 340 341 343 341 332 326 324 322 324 321 318 322 325 325 325 325 326 326 323 324 324 323 325 324 323 325 323 323 327 323 315 319 336 336 331 337 333 332 333 327 326 331 329 323 321 329 329 318 319 324 333 348 348 341 346 349 351 355 353 353 355 354 354 355 354 354 354 352 351 348 345 349
330 329 329 330 328 324 320 319 321 322 331 343 340 338 344 342 340 341 343 340 333 327 322 317 319 319 315 316 322 324 325 325 323 321 319 322 324 323 326 325 324 325 326 331 329 326 322 320 333 335 329 333 333 333 337 331 329 331 324 323 328 334 330 324 320 324 338 349 345 340 346 346 346 352 354 354 356 355 354 354 354 355 354 351 349 347 345 345
330 329 330 334 331 325 322 319 320 327 334 338 343 348 346 339 339 338 337 336 332 328 323 317 318 321 318 314 319 325 324 321 321 320 320 320 322 328 329 327 329 328 328 333 330 333 332 320 329 342 330 332 340 337 336 336 335 332 326 329 331 322 321 324 321 320 332 345 347 344 348 349 348 350 352 353 355 354 353 353 353 352 351 350 348 346 345 345
330 333 335 335 334 327 320 320 325 333 338 339 346 349 340 337 339 335 335 336 331 330 326 322 322 323 321 319 320 324 323 321 321 320 319 319 323 330 331 329 333 329 329 334 331 334 340 325 324 341 336 335 348 341 328 330 339 337 331 334 335 325 320 321 321 319 327 342 351 350 349 353 357 357 356 356 356 354 353 355 353 350 349 349 347 347 345 345
332 341 341 335 335 329 319 322 329 335 339 343 346 343 336 336 337 335 336 333 332 332 330 330 330 326 325 326 323 323 324 324 322 321 322 324 326 327 330 332 332 330 331 332 332 337 345 332 321 334 340 332 334 337 330 330 334 333 329 327 329 328 325 327 326 320 322 336 346 351 350 352 362 367 361 358 359 358 355 355 352 347 346 348 349 349 346 345
334 340 340 333 331 327 321 328 336 337 339 344 344 338 335 337 336 334 335 331 331 333 331 332 332 331 331 330 328 327 327 324 322 325 326 328 329 327 330 332 331 333 336 338 340 335 335 334 324 325 329 324 329 337 336 336 335 334 332 327 327 329 326 328 327 320 323 329 335 347 351 353 363 364 358 359 361 356 350 349 349 347 347 350 351 350 349 349
337 336 335 330 327 327 329 337 340 338 339 341 340 336 336 338 336 333 332 330 331 332 331 331 332 335 335 331 333 332 329 325 324 329 330 329 332 329 329 333 332 334 340 341 340 337 344 347 331 322 326 327 332 336 333 334 336 336 335 333 333 331 328 327 323 320 330 333 336 347 349 353 365 362 355 358 355 348 344 345 347 347 347 349 350 350 351 352
340 336 333 327 326 329 335 342 342 338 338 337 337 335 335 335 335 332 330 330 332 332 333 332 331 334 335 332 334 334 332 329 328 332 332 330 332 330 331 338 337 340 344 340 337 342 351 348 333 334 350 351 343 342 340 338 335 332 331 335 337 330 330 333 327 328 338 337 340 352 350 353 367 366 353 348 345 343 343 345 347 347 348 349 350 352 353 354
337 337 335 328 328 333 337 341 343 343 342 339 335 334 335 334 332 331 330 330 332 332 333 333 330 332 335 333 333 334 333 328 327 331 333 331 332 332 336 340 340 341 341 342 343 337 333 339 341 340 342 340 339 341 338 335 331 330 331 335 337 334 337 338 333 339 343 335 341 354 351 352 361 356 345 341 342 343 343 345 348 349 350 350 350 354 357 356
337 339 337 330 329 333 338 340 338 339 341 338 336 335 334 335 332 331 330 331 332 331 331 333 331 330 332 333 334 335 333 330 328 331 332 332 332 332 335 337 336 336 344 356 364 345 332 343 351 339 327 325 328 331 330 329 327 328 331 335 337 339 341 336 333 339 338 334 344 352 349 350 351 346 342 342 343 343 342 345 348 350 352 352 351 353 353 354
339 339 339 337 335 332 336 337 332 333 339 339 339 338 334 334 335 331 331 333 331 330 330 331 330 330 330 332 335 334 334 333 332 332 332 334 333 330 334 336 337 348 367 373 365 353 347 349 355 349 336 331 335 343 346 337 327 323 326 331 334 336 339 338 334 334 335 338 345 347 345 345 344 344 344 344 345 343 342 345 348 349 351 350 351 352 352 353
340 341 341 342 344 343 343 341 334 337 345 342 340 342 337 335 336 334 332 332 331 330 330 329 329 328 329 334 336 334 335 336 335 335 333 334 334 332 334 333 340 366 385 362 348 361 357 339 338 344 336 332 341 349 345 332 327 324 324 329 332 334 338 339 332 331 338 344 344 344 345 342 341 346 345 341 342 342 341 343 346 349 350 350 351 354 355 356
339 341 337 337 345 351 348 343 339 341 343 342 343 343 337 335 336 335 334 333 330 331 331 330 329 329 331 335 335 333 336 336 336 336 335 335 337 336 336 332 337 357 364 341 342 365 353 330 329 329 326 331 337 337 335 331 330 330 329 330 333 334 335 335 332 336 345 347 343 344 344 342 343 347 345 340 341 340 338 340 344 347 350 350 350 350 350 354
337 337 335 334 340 344 341 340 343 341 341 351 357 347 338 337 337 334 333 334 332 330 329 330 332 330 331 336 336 336 335 331 330 333 334 334 336 336 338 335 333 342 342 330 340 351 340 336 345 331 322 332 334 331 335 334 328 330 332 332 334 334 334 334 335 341 346 343 342 344 344 342 343 346 343 340 342 340 338 342 345 348 350 351 350 347 347 351
336 335 333 333 339 345 344 344 346 344 347 358 359 346 338 339 338 335 336 335 334 332 329 330 333 334 332 334 335 334 334 331 329 330 331 333 335 335 334 333 331 333 336 332 338 339 330 336 354 339 324 332 338 331 334 335 331 332 333 334 334 333 332 334 335 340 343 341 341 343 342 339 339 342 342 341 343 342 341 346 349 349 352 354 348 344 347 350
331 331 330 334 348 357 354 348 345 349 358 360 355 349 342 340 337 335 335 335 332 331 330 330 334 338 334 333 335 333 332 332 330 329 329 330 330 331 330 332 330 331 333 333 335 337 333 336 349 341 325 329 337 329 330 336 336 332 332 333 334 333 332 334 336 340 342 342 342 341 340 339 338 339 341 341 343 343 343 348 350 348 351 352 345 341 347 352
329 332 330 334 352 361 353 346 339 345 356 354 348 347 342 339 342 337 336 339 333 328 330 331 333 339 338 333 332 331 330 329 329 328 327 328 326 327 328 329 328 328 333 333 330 336 341 338 337 332 323 327 333 328 330 339 335 332 334 334 332 335 334 334 337 338 339 342 342 340 340 342 342 342 341 341 342 340 338 344 351 349 347 348 345 343 345 350
Wind_Speed
28 28 27 26 26 25 23 22 21 18 16 14 12 12 12 12 12 12 12 12 11 10 9 9 10 11 12 13 15 16 19 20 15 5 5 6 5 8 7 5 4 4 7 10 11 10 9 9 10 11 8 4 3 4 4 6 4 4 3 2 2 2 2 4 6 6 4 4 6 7 7 8 6 3 3 4 4 4 3 2 1 2 1 6 14 25 27 26
29 29 28 27 27 26 25 23 21 18 15 13 12 12 11 12 12 12 12 12 12 11 9 10 10 11 11 13 14 16 19 18 12 7 7 6 7 8 7 6 5 7 8 9 13 11 5 4 6 5 2 2 2 3 2 2 4 4 3 4 4 4 3 4 7 7 5 6 8 7 6 7 7 5 5 4 3 4 3 1 1 4 4 9 17 24 24 25
30 30 29 28 28 27 26 24 22 18 15 13 11 11 10 11 11 12 12 12 12 11 10 10 10 10 11 12 13 15 17 12 5 4 3 6 10 10 9 8 9 9 10 10 11 10 8 9 9 6 2 2 3 4 3 2 3 4 3 5 4 6 3 3 6 9 8 9 9 8 5 5 6 5 4 5 5 5 4 3 3 5 6 10 14 18 21 22
31 30 30 29 28 28 27 25 22 18 15 13 11 10 9 10 11 11 12 12 12 11 10 9 9 10 11 12 12 13 12 5 1 3 3 4 8 10 10 10 10 10 10 10 10 10 11 12 10 5 3 4 4 5 4 4 3 2 3 5 6 5 4 3 6 10 10 9 10 9 6 5 5 3 4 7 6 4 5 6 7 9 10 12 13 15 19 19
31 31 31 30 29 29 27 26 22 18 16 13 10 9 9 10 10 11 11 12 11 10 9 8 9 9 10 12 11 10 7 2 2 4 3 3 5 8 9 9 10 10 8 8 8 7 8 8 6 3 3 4 4 4 6 7 4 2 2 9 9 5 6 5 6 10 10 8 9 10 8 7 5 2 5 9 6 4 6 8 8 11 12 13 15 15 16 16
31 31 31 31 30 29 28 26 21 17 16 13 10 9 9 9 10 10 11 11 11 10 8 8 8 9 11 10 7 6 2 1 4 4 3 1 3 6 6 8 10 8 8 7 5 4 5 3 3 3 2 4 6 5 6 5 3 4 2 7 9 7 7 5 4 9 10 10 10 9 6 7 6 2 5 7 5 6 5 9 9 10 11 13 16 15 14 14
32 32 32 31 31 30 29 26 21 17 15 14 11 9 9 9 10 10 10 10 10 9 7 7 8 9 10 7 4 4 2 3 6 4 3 3 5 7 7 8 8 7 8 6 1 1 2 3 3 4 3 4 5 5 7 5 3 6 3 5 7 7 8 6 6 7 9 11 10 9 7 8 7 4 4 4 5 2 6 10 10 10 11 12 12 12 13 13
32 32 32 32 31 31 29 26 21 16 15 14 12 10 9 9 9 9 9 10 10 8 7 6 7 8 9 5 2 3 1 5 5 7 5 5 7 8 9 8 8 8 8 7 5 3 1 4 6 4 2 4 3 5 8 7 5 4 4 6 6 5 7 6 7 7 8 8 8 10 9 8 8 6 6 5 2 5 8 10 10 10 10 9 10 11 11 11
32 33 33 32 32 31 29 25 20 16 15 14 12 10 9 9 9 9 8 9 9 7 6 6 6 6 8 4 2 3 3 4 6 7 5 6 8 9 9 7 8 9 6 8 10 4 1 3 6 4 4 5 4 6 8 6 2 2 1 6 7 5 6 7 8 9 8 5 8 11 6 4 5 4 4 3 3 8 9 10 9 9 9 8 8 7 4 2
32 33 33 32 32 31 29 25 20 16 15 14 13 10 9 9 9 9 7 8 8 6 5 5 5 5 5 3 3 2 3 7 8 5 5 7 8 10 9 6 7 10 7 7 9 6 4 5 7 6 5 4 4 5 6 4 1 5 2 6 10 9 6 6 8 9 8 5 9 10 5 2 2 3 2 4 3 8 10 10 8 8 8 7 7 5 5 4
32 33 33 33 32 31 28 24 20 17 16 15 13 11 10 9 9 9 7 7 7 5 5 4 4 4 3 3 4 2 5 8 7 5 6 7 9 10 10 8 7 10 9 6 9 9 7 9 8 4 3 2 5 6 5 4 3 6 3 4 7 9 5 5 7 8 7 4 6 10 5 1 4 3 4 5 4 8 10 8 7 7 5 7 9 6 6 5
33 33 33 32 32 30 28 24 19 17 17 16 13 11 9 9 9 8 6 6 5 4 4 3 3 3 2 3 3 7 8 9 7 7 6 5 7 6 6 8 8 9 10 7 10 11 9 13 9 5 3 2 5 5 4 5 5 8 4 5 4 6 2 4 4 5 7 4 7 10 6 5 5 2 6 5 6 7 8 7 6 6 4 6 7 5 4 4
33 33 33 32 31 30 28 24 19 17 17 15 12 10 9 9 9 7 6 5 4 3 3 2 2 2 3 0 7 9 9 9 7 9 8 4 4 5 6 9 10 11 12 11 12 14 14 16 8 4 5 2 3 3 4 6 5 7 4 3 4 4 2 6 3 2 8 6 10 9 4 4 4 5 6 3 6 7 7 5 4 4 3 5 6 6 5 5
33 33 33 32 31 29 28 23 18 17 16 13 11 9 8 7 7 6 5 4 2 2 2 1 1 1 2 4 9 7 6 8 9 14 12 9 9 9 10 11 11 11 12 13 15 15 15 15 9 5 5 1 2 4 7 6 3 4 4 1 3 3 5 7 4 6 9 3 5 8 3 4 1 3 5 2 4 7 7 4 3 2 2 4 5 6 6 6
33 33 33 32 31 29 27 22 17 15 14 12 10 8 7 5 5 5 4 2 1 1 2 2 1 1 2 6 10 6 3 5 12 19 14 13 15 11 11 14 15 13 11 12 13 15 16 13 7 3 4 3 2 5 6 5 3 2 1 4 1 3 5 5 4 7 10 4 2 8 4 3 1 3 3 1 3 6 7 4 3 4 3 3 3 5 6 5
33 33 33 32 31 29 26 21 15 14 12 10 8 6 5 4 4 4 2 1 1 1 1 2 0 1 1 4 7 5 4 6 12 18 14 14 16 13 13 15 16 16 14 14 13 15 14 7 2 2 2 4 2 2 4 5 5 2 3 4 2 4 4 4 2 2 8 9 1 3 5 2 1 1 4 3 4 6 6 4 4 3 2 1 2 3 4 5
33 33 33 32 31 28 26 20 13 13 10 8 7 4 4 4 3 2 1 2 1 1 1 1 3 1 2 5 5 3 6 9 13 15 14 14 16 15 11 8 11 12 12 12 11 9 5 2 2 1 1 2 1 4 4 4 5 4 2 4 3 6 7 5 3 3 2 9 3 4 6 4 2 3 4 3 4 7 6 5 2 2 3 3 2 1 3 4
33 33 32 31 30 28 25 19 13 12 9 7 6 4 3 3 1 1 3 3 2 2 2 3 2 1 3 5 4 3 7 13 16 14 15 16 16 16 11 7 6 3 3 5 5 3 1 1 1 1 3 3 0 4 2 5 6 5 4 3 1 5 8 6 6 4 3 8 6 7 8 5 4 3 4 3 1 5 5 2 2 4 4 4 3 1 2 2
33 33 32 31 29 27 24 18 13 11 9 6 5 5 4 1 1 1 2 2 1 0 1 2 3 1 2 6 6 5 7 15 15 11 13 15 14 15 12 8 4 1 1 2 3 3 2 0 2 2 4 5 5 5 8 11 10 8 9 2 4 5 5 5 8 8 10 10 5 8 8 5 4 4 4 4 4 3 4 4 4 3 2 3 4 3 3 3
33 33 31 30 28 26 23 18 14 11 10 7 5 4 2 0 2 1 1 1 4 6 3 4 6 4 5 5 6 5 7 11 10 9 14 14 10 9 6 3 2 2 1 3 3 2 3 3 3 5 8 9 10 10 11 13 10 10 10 4 4 6 5 9 12 9 11 10 4 7 9 5 5 4 4 4 5 6 6 5 4 2 2 3 3 3 3 3
34 32 31 29 28 25 22 18 13 11 11 9 6 2 1 1 1 2 2 3 8 11 8 7 9 7 9 10 12 7 3 5 5 6 14 15 8 5 3 1 1 2 5 4 3 2 3 4 8 10 13 14 12 11 11 12 11 11 7 2 4 5 6 8 10 5 6 9 4 6 10 6 5 5 6 6 6 6 6 5 3 3 3 3 3 4 4 3
34 32 30 28 27 24 21 17 13 12 11 9 4 1 3 3 2 1 2 3 8 10 11 10 8 8 12 16 21 16 3 3 4 5 9 11 6 4 3 2 4 5 4 0 1 3 1 5 12 14 13 11 12 12 13 12 8 7 4 3 5 8 10 7 6 3 2 8 5 5 10 5 5 5 5 5 4 2 3 3 0 1 2 4 4 5 4 4
33 31 29 27 25 24 20 15 12 12 10 8 5 4 5 6 7 8 3 1 7 6 7 7 6 6 9 13 18 14 4 5 5 5 8 9 4 4 4 3 5 5 3 1 2 2 3 8 13 14 10 8 10 11 8 5 2 2 2 3 4 9 12 5 1 1 5 6 8 8 8 4 5 5 3 3 3 2 3 3 2 2 2 3 4 5 4 3
32 30 28 26 24 22 17 13 10 9 9 8 9 9 11 16 18 14 4 1 5 4 5 8 6 4 7 9 9 6 4 4 5 5 10 10 4 3 4 4 4 3 4 5 5 5 9 14 10 10 12 10 7 4 2 3 5 4 4 2 4 9 12 11 8 6 9 7 9 11 7 3 4 5 4 4 4 5 5 5 6 5 4 4 5 5 4 3
31 29 26 25 22 19 16 11 4 5 9 9 11 13 19 22 20 11 2 1 3 4 4 5 4 5 9 8 6 5 3 3 5 6 11 12 7 4 3 4 3 4 7 7 6 6 11 16 9 5 8 5 1 3 2 3 2 4 5 6 6 16 15 13 13 10 8 2 6 5 6 2 4 4 3 4 5 6 6 7 9 7 7 7 6 6 4 3
30 28 25 23 21 18 13 4 1 5 8 9 10 17 21 20 15 7 2 4 3 3 1 2 2 4 7 5 4 3 3 3 7 9 12 14 12 6 2 2 1 4 6 5 4 3 7 12 6 3 3 2 6 4 3 2 1 1 5 5 11 23 19 16 15 8 5 4 7 4 4 2 3 4 3 3 4 6 6 8 9 7 8 7 6 5 4 4
29 26 24 21 19 15 7 2 3 5 4 8 14 19 20 18 10 4 3 5 3 1 2 1 0 4 5 5 5 6 1 4 3 6 12 15 10 4 3 4 2 3 3 1 2 2 3 6 3 3 2 3 6 2 5 1 5 2 6 3 13 21 20 21 16 7 5 3 1 1 5 5 1 2 2 2 3 6 7 8 8 7 7 6 5 5 5 5
29 25 22 19 16 12 6 4 5 4 4 11 17 17 18 19 11 2 4 2 2 1 2 2 1 4 3 3 6 5 3 3 2 3 10 16 9 4 3 5 2 6 4 3 3 6 2 2 2 2 5 3 2 3 6 3 4 5 8 4 7 13 15 16 12 5 4 4 3 1 5 5 1 1 2 1 3 6 6 6 7 7 6 6 6 6 6 5
27 23 20 16 12 9 6 6 6 4 6 11 14 14 17 17 9 4 4 2 1 0 1 1 1 3 1 1 3 2 3 0 2 3 3 8 7 2 3 6 4 7 6 4 4 8 5 5 5 5 5 2 4 7 7 4 3 7 4 0 2 1 2 6 8 6 4 5 2 5 3 4 3 0 2 1 2 4 4 5 6 6 5 5 5 5 6 5
26 21 18 13 8 4 4 7 8 3 8 10 11 14 14 10 5 4 3 0 2 3 1 1 0 2 4 2 2 2 2 3 1 3 2 2 2 1 2 3 2 3 5 2 5 8 7 6 2 4 4 6 6 5 5 4 5 3 3 5 6 5 5 4 4 5 5 3 3 4 2 4 3 1 2 0 1 3 4 5 5 5 5 4 3 4 5 5
24 18 15 11 5 5 3 4 5 1 7 11 12 12 8 5 4 4 0 1 2 3 0 1 2 3 6 5 3 1 2 4 1 5 3 2 1 2 2 2 1 1 5 4 5 7 4 3 2 2 3 4 1 3 4 5 3 3 5 4 4 5 5 5 4 5 5 1 3 2 7 8 4 1 1 3 4 5 6 5 5 4 3 3 3 4 4 4
21 16 14 10 8 12 9 6 6 3 7 11 10 6 4 4 2 1 2 2 1 3 3 3 3 3 6 6 5 3 3 4 3 5 5 3 2 2 3 3 2 2 3 3 3 6 5 2 3 2 1 3 4 4 6 7 6 5 3 4 4 3 4 4 3 3 3 1 1 4 6 7 4 2 4 7 7 7 6 5 5 5 2 2 3 4 4 4
18 14 10 8 10 15 13 8 5 1 8 10 7 4 5 4 1 3 2 2 2 4 3 4 4 4 6 5 4 4 3 4 4 4 5 4 3 4 4 5 5 4 2 3 2 3 4 5 2 1 3 1 5 3 3 4 4 3 2 2 4 1 2 1 2 1 2 2 2 1 3 5 3 2 4 8 8 6 6 5 5 5 3 2 2 2 3 4
14 9 7 7 11 13 12 11 9 5 8 8 5 4 4 2 3 3 3 4 4 3 1 5 6 4 5 5 4 3 2 3 5 5 5 2 1 3 4 4 5 5 2 1 2 2 1 3 2 2 2 2 2 3 5 1 3 2 3 4 4 2 3 3 3 2 3 2 1 2 3 4 3 2 4 7 7 6 6 6 5 5 4 3 2 3 3 4
12 7 7 8 9 9 10 11 10 5 5 5 5 4 2 2 3 2 3 4 2 2 3 6 7 4 4 5 4 4 4 3 4 4 4 4 3 3 3 4 6 6 3 1 2 2 2 2 5 3 3 4 2 3 4 4 4 3 2 5 2 2 4 3 2 5 5 3 4 4 3 3 3 4 5 7 7 6 7 6 6 5 4 4 4 4 5 4
10 8 8 7 7 5 7 10 10 6 2 4 4 1 3 4 3 2 2 2 3 3 4 4 4 3 4 3 3 5 4 4 4 3 2 4 4 4 3 4 5 8 6 3 3 1 3 2 5 3 2 3 5 4 2 5 0 2 3 2 4 4 6 3 1 3 5 5 3 2 2 3 4 4 4 6 7 5 5 5 5 4 4 4 4 4 5 4
10 7 6 6 5 3 8 12 14 10 4 5 3 2 4 3 4 4 2 3 6 4 6 3 2 4 3 2 3 5 3 2 3 4 2 3 3 4 5 5 3 7 9 5 1 2 3 2 5 1 3 4 2 2 3 3 2 3 3 3 4 1 4 3 2 3 5 5 1 1 3 3 2 1 2 5 6 5 4 4 4 4 4 4 4 5 6 6
10 4 5 7 5 6 11 15 16 9 5 4 1 3 3 4 4 5 4 4 5 2 4 3 3 5 5 3 5 6 5 2 4 5 3 2 2 3 4 4 2 5 8 5 1 0 4 1 5 2 2 4 4 7 5 6 3 4 1 2 2 3 3 3 3 2 3 3 1 2 2 1 0 2 4 5 6 6 5 4 5 4 4 4 4 6 6 6
6 2 4 4 5 9 14 17 13 6 5 2 2 3 2 4 6 6 7 7 6 3 3 3 3 3 4 5 6 6 6 5 6 4 3 3 2 3 1 1 1 1 0 3 3 1 3 3 3 6 4 2 5 5 1 5 6 4 3 3 3 3 2 2 2 2 4 3 2 3 1 2 2 3 5 5 6 7 6 4 5 4 4 4 4 4 4 3
1 2 3 2 10 13 17 15 6 5 2 1 3 3 3 5 8 10 12 10 5 2 2 2 3 3 3 4 4 4 4 5 6 5 3 3 2 2 3 0 1 3 6 6 5 2 3 4 0 6 6 4 2 0 3 2 1 3 4 3 3 2 2 2 2 2 3 4 3 3 1 2 4 2 5 6 6 5 6 6 5 4 4 4 3 3 1 1
1 2 3 6 16 19 16 9 3 2 2 3 3 4 4 4 7 12 15 9 2 2 2 3 2 3 2 1 1 2 3 4 5 3 1 1 3 1 3 1 3 3 5 7 6 3 1 2 2 2 4 4 2 2 3 4 4 4 3 3 2 2 3 4 2 3 2 4 3 4 2 3 3 1 4 5 4 4 6 8 6 5 5 4 3 3 2 1
2 2 2 12 23 21 11 3 2 2 2 4 3 4 5 4 7 12 12 4 2 1 1 2 2 2 4 2 2 1 1 2 4 3 2 2 3 1 3 2 6 6 5 3 2 2 1 4 3 1 1 1 4 4 5 6 6 7 5 3 3 3 4 5 2 2 2 4 2 4 3 2 4 1 2 3 5 6 7 8 7 5 5 5 4 4 3 1
2 2 3 18 26 16 6 2 3 2 3 5 5 7 6 4 8 11 8 3 3 3 3 2 1 3 4 1 2 4 5 2 4 4 3 3 4 3 2 6 9 6 5 2 2 2 2 3 3 2 3 4 6 6 5 6 7 8 5 4 4 3 3 5 4 3 2 3 2 4 3 3 5 2 3 4 6 7 7 8 7 5 4 4 4 3 2 1
0 2 2 15 20 8 4 1 3 3 5 5 6 8 6 4 7 8 5 4 3 3 4 3 3 4 1 2 2 4 4 4 4 4 3 3 3 4 5 9 8 5 3 2 1 2 2 1 3 3 4 6 7 7 7 7 5 5 4 4 5 4 4 4 3 4 3 2 2 5 2 4 4 2 5 6 7 6 5 6 6 5 4 3 4 4 3 3
1 2 2 7 10 2 1 2 1 3 6 7 8 8 6 6 8 7 4 4 4 4 3 3 3 4 3 3 4 5 7 6 2 2 3 3 2 3 6 9 7 4 2 4 4 3 2 2 3 5 2 0 1 2 3 2 3 4 3 5 6 5 6 4 3 5 3 1 3 5 4 3 1 4 5 5 6 5 3 4 4 4 4 4 4 3 3 3
2 1 3 1 3 2 2 2 2 3 5 6 6 6 6 6 10 10 6 5 7 6 2 2 4 5 5 5 5 7 9 8 5 4 4 3 1 2 5 6 6 4 2 3 3 4 3 2 3 6 6 5 5 5 5 3 3 3 3 6 6 6 7 6 4 4 4 3 4 2 6 7 4 4 3 3 5 5 4 4 4 3 4 4 3 3 3 2
2 1 2 2 2 3 3 3 2 2 4 1 1 4 5 7 8 9 8 5 6 7 4 5 7 5 4 5 6 6 7 8 9 8 6 5 3 3 5 5 5 6 4 4 5 4 4 3 1 3 3 5 6 6 3 4 5 5 6 8 7 8 9 8 6 5 6 6 3 2 6 9 5 4 5 4 5 5 5 4 4 4 4 3 3 3 3 4
3 1 2 2 1 2 3 4 6 6 4 3 1 3 6 9 8 7 7 5 5 7 5 6 11 9 5 6 6 4 6 7 7 6 5 6 5 4 6 5 5 7 5 5 4 4 6 1 3 1 2 5 3 3 4 6 5 6 9 10 9 9 10 9 6 6 6 6 5 6 7 8 5 5 5 5 6 6 5 4 5 5 4 3 3 1 3 5
3 2 3 3 1 2 3 6 8 6 1 2 1 4 6 9 10 7 4 5 6 7 5 6 10 11 8 8 7 4 5 4 3 4 3 4 4 3 4 4 5 5 5 5 4 3 5 1 3 2 4 6 3 3 6 6 6 6 7 8 10 9 10 10 7 6 8 9 9 9 8 6 4 4 5 5 6 6 5 5 5 5 5 4 2 1 3 5
3 2 4 3 3 4 4 5 4 2 2 3 2 3 5 6 9 9 5 4 5 5 5 6 7 8 10 9 8 5 3 4 3 2 2 3 4 3 3 0 3 5 6 4 3 3 4 2 3 4 4 7 5 2 7 9 9 8 7 6 10 12 11 10 9 8 10 9 8 9 9 4 1 3 5 4 4 5 6 6 5 5 5 4 1 2 4 5
5 5 4 3 3 4 4 4 2 2 2 3 1 2 5 6 9 11 8 4 3 3 5 6 6 6 8 9 9 6 4 1 3 1 1 2 1 1 1 1 1 3 4 3 2 3 3 0 2 5 4 5 6 2 9 11 12 12 10 7 7 10 8 6 6 6 8 9 8 7 7 4 3 3 4 3 3 5 5 6 5 4 4 4 0 3 4 5
10 7 6 2 2 4 4 5 4 3 2 3 0 3 2 4 9 10 6 4 4 5 7 7 7 5 6 9 9 6 7 5 3 4 3 2 2 3 3 3 2 2 1 1 1 1 2 3 1 3 3 4 6 2 8 8 9 7 5 5 3 8 9 7 6 5 6 9 8 5 4 5 3 3 5 4 3 4 3 5 4 3 3 2 2 4 5 6
Wind_Direction
2 1 359 358 357 356 354 351 348 345 343 338 333 333 333 335 334 335 335 334 335 329 325 320 321 328 330 333 332 331 328 323 325 300 227 247 215 183 192 224 237 239 229 240 254 263 277 270 267 273 279 274 226 256 238 191 167 157 195 184 168 173 177 174 167 175 162 163 162 174 178 136 145 167 118 103 76 104 112 331 316 10 91 132 133 139 145 149
1 360 358 357 356 354 353 351 348 344 340 335 332 333 334 338 337 339 339 339 339 331 326 322 324 330 330 336 334 332 330 324 317 278 242 220 198 201 216 231 237 251 237 235 255 256 259 263 278 294 258 241 230 238 257 203 153 168 166 112 178 200 197 185 145 153 158 163 169 164 164 147 155 154 131 131 135 142 133 281 27 57 97 121 131 139 145 150
0 359 357 355 354 353 352 350 347 343 339 334 331 333 335 338 338 339 339 338 337 330 325 323 326 329 334 335 334 334 330 328 319 269 228 195 210 221 220 229 241 256 251 244 259 258 253 274 298 318 276 260 249 238 235 192 165 183 140 95 198 201 194 207 143 151 165 162 154 153 164 151 155 151 133 138 153 174 173 173 135 125 146 137 138 144 147 153
360 358 356 354 353 352 351 350 348 342 339 335 331 331 329 330 333 336 338 338 335 331 325 324 326 330 337 334 333 334 330 341 314 219 176 199 209 210 213 228 243 253 252 249 258 259 270 292 312 325 289 273 242 240 245 214 195 184 132 135 188 182 149 208 168 147 153 156 150 149 142 141 164 151 135 139 142 211 215 199 172 159 161 148 148 152 152 157
358 357 355 354 352 351 350 350 348 343 341 338 331 323 319 322 326 332 336 336 334 332 327 325 327 333 337 333 333 331 339 56 242 226 205 240 194 195 211 224 239 245 239 242 253 268 296 303 311 320 290 284 283 276 252 226 181 93 124 149 165 162 143 204 189 135 136 144 137 140 138 148 158 131 161 153 151 225 212 194 180 164 165 155 152 156 157 161
357 356 355 353 351 350 349 348 347 344 343 340 330 318 314 314 317 326 331 334 335 331 327 327 331 338 337 335 338 338 7 110 263 231 199 199 163 182 197 213 224 227 221 228 254 307 326 295 291 307 281 284 291 291 269 253 142 94 65 137 158 159 147 192 183 130 132 131 135 151 151 138 134 155 184 170 194 238 187 160 164 165 165 157 153 158 163 167
355 355 354 352 351 350 348 347 346 343 341 339 332 320 313 310 311 317 324 333 335 330 327 329 336 340 341 344 348 10 83 253 263 213 183 149 157 172 175 199 203 200 212 212 210 257 266 274 286 266 250 277 286 302 307 313 77 95 86 145 168 157 144 162 149 132 132 130 138 143 131 134 150 165 165 202 245 218 138 143 153 160 162 160 157 161 169 173
354 354 353 352 350 349 348 346 344 341 339 338 333 323 315 309 306 308 320 330 330 331 327 330 342 344 350 360 360 16 331 250 218 180 175 149 158 164 167 188 192 192 205 211 207 192 237 279 266 246 279 308 325 345 339 350 40 76 118 155 164 144 143 141 124 123 122 121 121 117 126 160 175 149 143 210 229 116 130 139 149 155 159 166 167 170 172 175
352 352 352 351 349 348 347 344 342 338 335 334 331 324 314 309 307 307 318 326 328 328 322 332 344 351 359 2 59 21 280 209 165 165 155 150 165 163 163 182 194 192 202 229 227 210 138 255 260 275 303 304 329 355 355 9 32 321 132 148 154 145 146 132 124 133 128 117 107 103 117 180 200 119 109 228 145 121 134 142 155 158 165 171 165 166 146 152
351 350 350 349 347 346 346 344 339 334 332 331 327 321 311 306 306 309 314 321 326 322 322 336 341 1 11 11 76 42 233 163 146 159 149 154 165 164 168 183 200 201 215 246 238 219 198 240 274 291 279 284 321 347 349 353 313 288 321 133 155 151 151 148 143 149 129 106 110 109 124 195 275 79 92 267 146 132 137 148 165 157 173 160 115 107 85 50
350 349 348 348 346 345 344 343 338 332 330 327 324 316 308 303 302 308 311 316 319 316 326 335 350 15 33 74 95 215 207 167 156 150 147 159 168 173 178 189 202 211 224 251 261 246 236 267 290 313 272 281 320 327 317 299 320 304 357 87 162 149 141 155 153 161 125 82 123 117 113 13 2 76 180 216 156 143 140 151 165 142 154 128 103 113 123 128
348 347 346 346 345 344 344 342 337 332 331 330 325 314 305 299 298 301 305 317 321 321 330 326 349 15 41 87 187 220 193 181 175 149 152 167 174 183 188 209 228 235 232 233 269 278 290 297 319 349 287 315 328 320 298 292 327 312 353 57 170 137 132 183 172 181 123 118 163 115 68 353 356 181 199 186 146 137 131 143 149 119 104 103 109 127 115 109
347 346 345 345 345 344 343 341 337 334 335 333 327 317 303 293 296 300 306 316 315 322 339 339 345 11 40 82 234 228 199 199 194 173 179 185 201 223 232 240 245 251 246 240 271 294 302 300 317 318 285 336 307 284 307 313 334 309 328 80 155 106 227 210 217 188 112 151 177 112 70 292 311 209 200 177 141 133 125 129 120 107 103 102 117 136 125 107
345 344 343 343 344 344 343 340 337 337 339 336 332 324 306 294 296 301 307 312 311 330 345 347 346 72 73 261 263 270 239 237 231 211 198 197 217 237 248 244 234 236 244 250 269 286 288 294 317 315 284 291 268 304 331 325 331 302 316 343 162 142 228 214 189 150 113 177 187 94 108 209 336 236 219 221 154 138 126 112 112 164 164 126 135 140 128 120
343 342 341 342 343 344 343 341 338 338 339 341 344 338 324 311 306 311 311 309 306 322 349 351 269 119 29 279 281 304 264 235 223 214 203 204 214 228 243 234 227 227 232 243 258 269 275 291 322 306 281 320 344 337 334 326 329 312 286 308 261 176 229 205 185 164 131 170 210 86 112 166 75 300 305 345 144 126 116 126 187 215 199 159 139 122 118 130
342 341 340 341 341 343 342 341 338 337 339 346 354 356 351 337 324 330 324 308 305 277 34 42 32 117 48 285 295 307 248 206 196 202 206 215 217 228 243 238 235 233 232 236 244 254 264 280 291 208 258 317 348 21 3 342 324 311 186 247 239 156 207 178 156 258 143 149 303 74 136 153 86 357 12 59 124 114 124 175 211 244 240 121 55 82 119 149
341 340 339 339 340 342 342 341 337 336 343 352 356 3 10 360 344 360 37 61 42 303 192 13 356 6 261 286 308 276 225 201 195 207 219 223 225 235 246 244 239 238 238 242 246 251 259 268 258 258 312 323 87 84 33 326 290 296 210 219 221 153 182 172 113 316 127 123 77 71 116 108 80 86 68 75 123 134 157 193 222 336 357 10 7 150 157 168
341 339 338 338 339 341 342 341 335 336 342 347 349 350 2 25 45 101 100 98 67 353 311 302 345 39 274 271 268 241 203 199 209 223 228 227 231 236 241 244 238 252 286 276 261 244 247 327 277 327 331 322 149 119 133 254 241 269 269 215 204 154 175 166 137 194 130 100 104 97 90 84 71 60 71 41 61 144 150 125 42 22 22 343 307 286 239 218
340 339 337 338 337 340 343 339 332 332 335 334 335 324 309 318 83 138 128 94 88 251 272 230 177 126 261 231 240 255 207 202 210 221 227 229 229 230 241 253 246 73 16 300 279 229 178 351 356 329 289 265 233 186 198 235 235 248 268 255 114 143 172 138 134 159 127 97 88 102 100 101 83 42 36 7 355 68 70 50 37 25 24 309 293 305 285 292
340 338 337 337 336 339 341 336 330 325 326 326 323 326 306 340 30 346 228 189 215 223 215 183 193 248 288 273 290 274 209 205 205 208 221 224 211 211 236 276 351 15 223 223 265 260 155 180 251 234 240 243 236 223 218 237 248 253 273 324 92 144 149 131 135 150 129 102 49 94 101 88 75 36 11 9 19 33 26 27 26 354 300 279 292 313 331 349
339 337 336 336 334 337 339 336 329 320 321 320 321 347 198 211 44 341 300 243 240 236 239 226 204 236 272 283 297 289 206 197 207 214 218 212 180 161 233 240 64 298 250 227 264 295 134 196 240 227 229 238 239 240 243 249 253 253 256 3 44 97 105 113 125 145 129 103 77 98 94 63 40 32 10 19 36 25 12 22 8 318 294 294 337 356 1 15
339 337 335 334 333 335 336 335 327 319 317 311 310 228 236 241 169 11 358 277 266 235 230 243 224 245 264 268 274 273 267 170 223 260 212 190 159 157 224 199 174 239 262 180 315 316 326 235 246 240 228 231 247 249 248 251 245 249 262 64 65 92 87 56 74 95 72 95 108 99 88 59 21 29 15 23 44 26 12 36 10 276 349 341 12 32 15 24
338 335 335 333 331 333 335 338 331 323 320 305 274 235 278 311 307 319 347 253 282 244 214 234 225 243 259 266 266 254 214 171 206 253 197 169 162 177 175 189 202 246 297 154 199 258 275 250 246 251 241 221 243 243 226 254 290 277 303 60 116 131 120 105 110 65 27 81 132 117 91 60 15 2 349 18 35 19 23 57 83 81 51 17 35 52 32 31
337 335 334 331 329 331 334 340 333 329 336 307 273 277 320 329 312 311 344 192 280 274 228 219 201 213 240 256 257 217 179 176 183 222 195 170 156 166 172 195 206 259 272 234 212 203 245 256 247 252 250 223 226 262 74 41 338 314 289 257 151 140 136 139 140 105 60 72 132 118 86 21 356 346 337 359 17 30 31 47 48 35 35 34 38 43 42 57
337 334 332 329 327 327 330 335 340 3 347 297 285 318 337 334 315 302 21 64 291 287 253 212 186 228 243 243 224 193 169 198 203 202 191 180 170 158 196 197 177 238 249 243 236 226 250 257 241 218 240 220 116 330 38 98 314 328 293 273 142 130 130 127 125 114 89 94 204 147 80 2 313 338 338 341 11 30 25 38 39 25 24 29 27 16 19 50
336 332 330 327 323 324 329 329 80 12 334 286 305 332 336 338 323 285 108 51 309 285 211 156 152 217 236 226 184 132 84 244 224 187 183 196 190 160 201 242 169 239 244 242 240 234 259 261 242 168 209 67 51 354 311 140 128 337 268 268 128 132 136 137 137 127 129 190 223 198 101 122 281 324 316 325 28 37 28 42 41 29 26 24 22 11 7 23
335 331 328 324 320 322 323 237 288 328 297 294 321 325 327 340 332 239 102 35 303 249 147 195 72 170 199 204 155 104 101 252 227 175 184 200 198 133 185 252 334 271 268 27 315 270 275 295 320 57 76 68 61 357 281 154 111 230 250 191 131 140 147 153 153 140 162 161 58 138 121 117 194 274 256 296 43 47 38 42 38 30 24 19 21 19 22 30
334 330 325 320 316 309 287 254 289 291 273 311 323 324 330 341 338 194 98 34 268 134 147 222 211 175 201 208 161 142 222 209 119 216 194 188 192 99 167 230 233 263 280 75 299 281 259 292 260 98 69 75 105 225 240 168 132 230 239 195 150 159 158 158 154 138 142 103 44 172 125 97 88 197 204 313 38 54 49 47 43 31 16 16 22 18 21 33
333 328 320 316 311 294 269 245 249 277 312 328 338 338 337 342 356 77 83 76 198 251 189 161 155 194 214 216 192 209 266 359 141 228 179 178 204 103 168 217 210 260 270 164 231 276 264 244 203 135 95 154 218 231 219 183 213 244 237 25 23 160 155 130 135 139 103 81 178 215 145 101 107 131 240 291 45 75 75 60 49 37 28 26 25 23 20 23
332 325 315 309 299 269 255 242 234 285 341 349 350 341 339 349 36 69 32 42 202 244 223 99 155 169 137 152 251 227 226 289 185 144 102 190 239 16 189 213 176 263 289 231 241 264 265 272 224 137 157 191 216 241 223 213 239 273 18 28 13 357 357 35 104 118 80 39 264 228 138 106 117 279 279 227 110 122 107 78 60 48 45 39 27 37 32 23
332 322 305 294 261 205 221 235 208 31 3 353 344 341 354 14 70 91 49 255 221 243 180 166 219 152 145 175 236 207 185 257 182 132 181 233 23 3 345 352 358 345 337 321 287 287 300 329 299 241 199 173 119 326 307 308 316 38 50 53 20 338 1 20 2 49 80 292 281 109 87 75 90 166 109 86 79 91 104 103 95 79 54 36 29 41 42 33
330 315 295 281 232 207 205 172 151 93 5 351 350 4 52 46 35 126 222 315 327 223 187 190 227 178 164 188 221 215 178 213 193 141 172 192 149 194 193 197 193 46 339 290 300 318 325 298 248 269 341 101 81 6 328 339 13 38 28 58 61 339 8 20 340 36 87 229 167 100 79 65 75 114 112 98 83 84 103 117 116 115 107 51 33 36 39 40
326 310 293 267 226 217 211 183 167 8 348 351 8 47 77 73 257 215 220 295 267 222 166 150 199 187 166 187 226 221 187 203 212 172 176 174 167 219 235 218 176 125 218 251 327 322 320 313 290 78 343 4 98 60 327 331 9 17 320 100 111 96 50 341 300 63 100 126 127 91 73 91 99 87 108 105 96 93 96 98 106 114 122 107 49 41 45 42
328 317 305 264 236 231 221 209 223 280 335 357 39 68 72 92 241 234 230 238 219 231 188 153 180 182 173 198 221 190 153 233 217 168 164 155 143 233 261 245 191 151 159 333 323 221 144 323 285 150 255 280 86 145 182 219 345 274 202 130 122 139 133 197 236 154 160 148 77 360 66 124 163 158 124 109 101 96 90 89 92 88 91 98 56 32 40 43
338 331 321 280 253 242 218 208 217 250 339 24 65 77 112 209 247 235 229 238 220 217 195 161 161 174 207 225 234 193 159 218 219 157 160 175 180 210 226 230 197 163 125 77 247 227 107 241 249 241 211 142 112 217 173 75 2 275 167 81 30 223 151 176 190 137 140 103 28 6 51 97 117 118 119 108 99 94 92 92 93 87 71 65 51 29 30 33
338 324 322 290 266 239 197 190 186 178 89 65 71 101 195 218 230 210 226 260 260 207 154 140 140 169 239 251 257 242 209 202 186 156 193 194 190 209 226 249 202 168 158 159 217 259 63 287 265 289 321 144 166 210 128 87 260 292 47 34 278 212 141 128 34 79 87 85 44 4 87 98 96 106 113 109 107 107 109 111 112 109 86 66 53 40 33 25
335 315 308 283 274 198 172 172 165 157 101 78 107 216 237 248 227 222 245 254 249 193 129 136 180 173 220 253 262 244 226 222 166 157 225 222 204 221 228 251 220 174 181 173 204 210 115 320 287 33 350 291 203 120 50 60 130 75 29 285 279 51 97 93 78 36 50 82 93 61 114 140 144 133 136 127 127 133 140 139 126 110 95 81 57 46 37 24
335 312 286 272 246 175 163 161 155 141 83 74 171 238 239 241 228 229 244 266 281 261 130 153 197 180 184 207 247 223 179 185 181 168 205 210 231 245 213 220 204 178 191 171 102 181 104 35 300 350 6 296 9 52 21 337 25 94 159 270 56 69 32 30 55 43 65 93 109 94 106 150 154 150 162 155 144 150 166 150 121 102 89 82 61 52 43 26
337 349 311 266 186 164 156 153 145 103 60 55 268 252 233 260 273 279 284 292 292 266 175 169 182 180 186 202 229 213 172 174 184 177 179 165 214 280 262 168 210 360 84 113 116 154 91 99 291 314 340 21 25 42 47 314 344 33 39 16 53 108 124 88 68 96 120 131 143 130 105 311 250 180 160 158 158 160 165 143 119 109 95 92 83 70 54 28
329 44 330 201 164 159 149 143 115 55 74 213 241 250 292 298 293 298 296 288 267 197 160 174 163 149 194 224 232 209 178 170 174 175 175 153 148 310 324 16 103 33 29 49 74 74 62 90 110 304 330 35 30 305 148 156 341 31 52 45 24 34 83 88 36 37 117 134 141 138 143 271 248 193 148 161 172 160 141 125 121 122 113 111 111 110 98 15
67 38 304 179 157 151 137 121 59 78 174 263 250 255 295 291 294 305 298 284 231 166 155 149 157 134 129 360 322 230 210 184 169 146 134 141 111 117 290 315 92 72 45 36 33 38 59 99 108 321 350 26 334 309 69 103 124 106 100 103 94 90 85 77 11 330 56 105 135 141 147 252 260 187 158 170 154 129 121 118 118 124 126 128 132 155 184 71
61 23 235 164 155 149 124 84 291 178 212 276 250 262 295 294 302 305 295 299 53 328 50 116 201 124 82 26 304 319 343 167 153 115 116 110 85 89 279 49 76 80 86 69 320 267 132 98 83 354 335 340 296 326 47 77 87 81 70 65 81 85 92 109 161 271 33 52 76 107 106 253 268 272 156 153 123 120 119 116 119 127 134 145 164 180 180 136
80 337 185 161 160 149 99 16 292 277 250 256 256 273 292 310 308 299 295 348 27 341 10 36 327 48 63 311 320 12 19 64 98 102 130 106 57 356 340 78 78 68 75 79 298 329 53 78 61 333 308 322 316 333 23 42 57 65 47 35 65 67 98 130 149 142 84 32 49 86 74 267 274 338 83 109 104 106 110 115 123 131 145 150 143 140 125 52
250 298 164 167 172 152 71 224 268 299 276 285 296 294 303 316 308 301 308 344 360 7 13 1 26 44 353 269 13 26 40 54 45 55 84 80 41 9 40 74 80 69 74 151 192 30 33 89 75 46 356 348 344 349 360 4 39 74 55 41 59 57 66 83 71 70 62 353 80 107 125 252 264 31 76 92 92 96 113 128 132 137 150 134 91 74 62 22
301 311 11 181 195 201 98 192 300 320 309 322 316 313 338 335 318 321 336 357 4 15 6 328 20 42 356 343 20 23 45 61 41 22 64 76 66 42 48 63 76 86 125 177 167 102 89 117 99 101 104 22 327 309 295 309 45 65 61 63 68 56 61 80 70 66 75 340 54 103 155 204 112 74 75 83 94 102 117 121 115 115 118 104 85 71 51 16
37 51 11 330 251 300 271 273 352 284 288 329 325 327 5 348 321 322 338 23 12 352 351 355 9 29 20 18 36 31 32 44 53 40 37 37 20 32 52 61 72 87 137 148 100 83 84 61 104 134 155 190 206 223 220 162 93 81 82 79 78 71 77 92 89 93 136 116 41 69 149 134 116 110 99 85 91 86 75 80 77 82 93 92 87 70 38 349
44 65 29 12 310 323 317 315 346 260 236 126 337 313 343 339 324 323 332 20 28 359 10 39 21 23 43 43 49 35 22 37 46 34 18 10 357 14 39 48 51 46 50 56 51 78 87 26 3 134 169 219 217 214 186 107 105 116 100 87 87 89 88 87 99 142 147 107 62 235 146 128 151 173 135 105 95 87 82 94 112 121 116 102 83 50 355 320
26 15 20 32 255 312 341 310 308 298 250 178 204 308 335 341 339 337 328 339 29 26 28 31 17 13 46 80 83 38 19 42 41 18 8 8 2 21 19 3 19 33 37 40 36 88 102 46 296 13 321 285 249 189 148 106 106 111 104 109 109 103 103 102 119 157 146 116 155 183 143 132 172 182 144 124 121 120 122 130 133 125 117 110 95 32 326 320
18 360 342 13 340 266 267 275 292 301 257 145 31 351 355 347 337 331 332 338 359 22 49 47 23 18 28 61 87 62 29 58 38 355 8 8 354 36 41 351 349 9 32 42 15 64 96 259 277 19 332 308 321 149 136 102 97 98 97 116 115 101 103 106 110 122 110 113 140 145 127 132 175 177 158 153 143 132 126 126 125 123 130 144 146 360 332 325
15 338 333 355 336 286 259 272 293 323 37 47 50 4 351 350 334 326 344 1 337 355 43 53 44 43 40 48 71 67 53 120 119 349 29 49 6 25 70 310 307 349 22 44 6 30 79 249 279 49 20 312 306 166 121 91 86 77 49 70 104 100 96 101 105 104 100 109 128 125 117 119 195 175 154 159 148 115 108 122 134 148 163 163 144 350 328 304
343 303 330 343 306 304 298 309 329 101 37 352 97 40 344 342 339 331 330 337 339 38 63 56 53 53 40 39 51 35 342 79 121 259 239 116 148 216 146 213 240 5 11 40 24 24 70 222 331 51 53 308 309 110 115 92 75 63 31 19 88 103 101 104 110 116 125 132 125 112 120 148 215 175 114 84 78 88 110 139 147 169 187 174 104 334 305 274
355 334 351 360 260 309 324 325 350 48 14 309 189 96 31 335 340 340 329 323 360 58 75 66 60 58 39 25 16 337 300 291 281 262 224 179 227 221 207 235 214 146 138 82 48 351 101 108 30 68 97 292 313 75 114 83 59 48 352 332 76 100 96 86 70 73 113 134 133 133 162 186 191 108 77 57 46 67 115 154 157 184 210 216 279 307 294 272